www.pogodaiklimat.ru

ПОГОДА в Блэквелле, OK

  • Прогноз погоды в Блэквелле
  • Монитор погоды в Блэквелле
  • Климат в Блэквелле

АРХИВ ПОГОДЫ в Блэквелле

Время (UTC), дата Ветер
(напр.,м/с)
 
Видим.   Явления Облачность Т
(С)
Тd
(С)
f
(%)
Тe
(С)
Тes
(С)
Комфортность

P
(гПа)

Po
(гПа)
Тmin
(С)
Tmax
(С)
R
(мм)
SD
(см)
03:35 24.03 ЮВ  5
{8} 
16 км    10/10 0 м  +12.0  +12.0  100  +9  +9      977.9         
03:55 24.03 ЮВ  3
{6} 
16 км    10/10 0 м  +12.0  +12.0  100  +10  +10      978.2         
04:15 24.03 ЮВ  16 км    10/10 0 м  +12.0  +12.0  100  +9  +9      978.5         
04:35 24.03 ЮВ  14 км    10/10 0 м  +12.0  +12.0  100  +9  +9      978.5         
04:55 24.03 ЮВ  11 км    10/10 0 м  +12.0  +12.0  100  +10  +10      978.2         
05:15 24.03 ЮВ  10 км  дымка  10/10 0 м  +12.0  +12.0  100  +10  +10      978.2         
05:35 24.03 ЮВ  8 км  дымка  10/10 0 м  +12.0  +12.0  100  +10  +10      977.9         
05:55 24.03 ЮВ  5 км  дымка  10/10 0 м  +12.0  +12.0  100  +10  +10      977.9         
06:15 24.03 В  2 км  дымка  10/10 0 м  +12.0  +12.0  100  +10  +10      977.2         
06:35 24.03 ЮВ  400 м  туман  10/10 0 м  +12.0  +12.0  100  +10  +10      977.9         
06:55 24.03 Ю  400 м  туман  10/10 0 м  +12.0  +12.0  100  +10  +10      977.9         
07:15 24.03 ЮВ  н/о  туман  10/10 0 м  +12.0  +12.0  100  +10  +10      977.6         
07:35 24.03 нст  400 м  туман  10/10 0 м  +12.0  +12.0  100  +10  +10      978.2         
07:55 24.03 З  400 м  туман  10/10 0 м  +12.0  +12.0  100  +10  +10      978.2         
08:15 24.03 СЗ  800 м  дымка  10/10 0 м  +12.0  +12.0  100  +10  +10      978.2         
08:35 24.03 СЗ  800 м  дымка  10/10 0 м  +12.0  +12.0  100  +10  +10      978.5         
08:55 24.03 С  1 км  дымка  10/10 0 м  +12.0  +12.0  100  +10  +10      978.5         
09:15 24.03 С  1 км  дымка  10/10 0 м  +12.0  +12.0  100  +10  +10      978.5         
09:35 24.03 С  2 км  дымка  10/10 0 м  +12.0  +12.0  100  +10  +10      978.9         
09:55 24.03 С  2 км  дымка  10/10 0 м  +12.0  +12.0  100  +11  +11      978.5         
10:15 24.03   3 км  дымка  10/10 0 м  +12.0  +12.0  100  +11  +11      978.5         
10:35 24.03   3 км  дымка  10/10 0 м  +12.0  +12.0  100  +11  +11      978.9         
10:55 24.03 СЗ  6 км  дымка  10/10 0 м  +12.0  +12.0  100  +9  +9      978.9         
11:15 24.03 С  8 км  дымка  10/10 0 м  +12.0  +12.0  100  +10  +10      979.2         
11:35 24.03 С  6 км  дымка  10/10 0 м  +12.0  +12.0  100  +10  +10      979.2         
11:55 24.03 С  5 км  дымка  8/8 0 м  +12.0  +12.0  100  +11  +11      979.2         
12:15 24.03   4 км  дымка  2/2 0 м  +11.0  +11.0  100  +10  +11      979.2         
12:35 24.03 СЗ  4 км  дымка  ясно  +12.0  +12.0  100  +11  +12      979.5         
12:55 24.03   4 км  дымка  ясно  +12.0  +12.0  100  +11  +12      979.8         
13:15 24.03 С  5 км  дымка  2/2 0 м  +12.0  +12.0  100  +10  +11      979.8         
13:35 24.03 С  2 км  дымка  8/8 0 м  +12.0  +12.0  100  +10  +11      980.2         
13:55 24.03 С  16 км    2/2 0 м  +12.0  +12.0  100  +10  +11      980.2         
14:15 24.03 СЗ  16 км    ясно  +13.0  +11.0  88  +10  +12      980.2         
14:35 24.03 СЗ  16 км    ясно  +14.0  +11.0  82  +12  +14      980.5         
14:55 24.03 СЗ  4
{8} 
16 км    ясно  +14.0  +11.0  82  +12  +16      980.5         
15:15 24.03 СЗ  16 км    ясно  +15.0  +11.0  77  +13  +17      980.5         
15:35 24.03 СЗ  16 км    ясно  +15.0  +11.0  77  +14  +20      980.5         
15:55 24.03 нст  16 км    ясно  +15.0  +11.0  77  +14  +21      980.8         
16:15 24.03 З  16 км    ясно  +15.0  +11.0  77  +14  +20      980.5         
16:35 24.03 СЗ  16 км    ясно  +15.0  +10.0  72  +14  +21      980.2         
16:55 24.03 З  4
{6} 
16 км    ясно  +16.0  +11.0  72  +15  +24      980.5         
17:15 24.03 СЗ  16 км    ясно  +16.0  +11.0  72  +15  +20      980.5         
17:35 24.03 СЗ  16 км    ясно  +16.0  +11.0  72  +15  +22      980.2         
17:55 24.03 З  16 км    ясно  +17.0  +11.0  68  +16  +25      980.2         
18:15 24.03 З  16 км    ясно  +17.0  +11.0  68  +16  +22      980.2         
18:35 24.03 З  16 км    ясно  +17.0  +10.0  63  +16  +24      980.2         
18:55 24.03 СЗ  16 км    ясно  +18.0  +10.0  59  +18  +25      980.2         
19:15 24.03 СЗ  3
{8} 
16 км    ясно  +18.0  +10.0  59  +18  +27      979.8         

 

Местоположение метеостанции Blackwell-Tonkawa Municipal Airport: широта 36.7500 долгота -97.3500 высота над уровнем моря 314 м.

В архиве по умолчанию представлена погода в Блэквелле за последние 1-2 суток. Обновление информации о фактической погоде в базе происходит ежечасно! Архивные данные за месяц целиком и за предыдущие месяцы Вы можете получить, выбрав интересующий диапазон дат из раскрывающегося списка и нажав кнопку "Ввод!".

Внимание! Архив погоды МЕТАР в базе сайта хранится не более 60 дней. Нет смысла пытаться выбрать более раннюю дату.

Внимание! Время в таблицах - всемирное. Для получения местного времени необходимо прибавить поправку, которая в Блэквелле равна -6 ч.

Ветер - указаны скорость ветра в м/с и направление, откуда дует ветер: С - северный, СВ - северо-восточный, В - восточный, ЮВ - юго-восточный, Ю - южный, ЮЗ - юго-западный, З - западный, СЗ - северо-западный.
Видимость - горизонтальная дальность видимости в метрах или километрах. При видимости от 1 до 10 км при отсутствии осадков обычно наблюдается дымка, при ухудшении видимости до 1 км и менее - туман. В сухую погоду видимость может ухудшаться дымом, пылью или мглою.
Атмосферные явления - указаны явления, наблюдавшиеся в указанный момент времени.
Облачность - указаны через наклонную черту верхняя и нижняя облачность в баллах и высота нижней границы облаков в метрах. Внимание: облачность, как и прочие метеорологические величины в США измеряются автоматическими метеостанциями. Указанные значения в баллах носят условный характер и показывают процент времени, в течение которого, в среднем, лазерный луч высотомера отражался от облаков обратно.
T - Температура воздуха - температура, измеренная на высоте 2 м над землей.
Td - Температура точки росы - температура, при понижении до которой содержащийся в воздухе водяной пар достигнет насыщения.
f - Относительная влажность воздуха - влажноcть воздуха, измеренная на высоте 2 м над землей.
Te - Эффективная температура - температура, которую ощущает одетый по сезону человек в тени. Характеристика душности погоды. При расчете учитывается влияние влажности воздуха и скорости ветра на теплоощущения человека.
Tes - Эффективная температура на солнце - температура, которую ощущает человек, с поправкой на солнечный нагрев. Характеристика знойности погоды. Зависит от высоты солнца над горизонтом, облачности и скорости ветра. Ночью, в пасмурную погоду, а также при ветре 12 м/с и более поправка равна нулю.
P - Атмосферное давление - приведенное к уровню моря атмосферное давление.
Po - Атмосферное давление - измеренное на уровне метеостанции атмосферное давление.
Tmin - Минимальная температура - минимум температуры воздуха на высоте 2 м над землей.
Tmax - Максимальная температура - максимум температуры воздуха на высоте 2 м над землей.
R - Количество осадков - Количество выпавших осадков за 3 или 6 часов, мм.
SD - Снежный покров - Высота снежного покрова, см.